Regional Weather Roundup
Issued by NWS

Home | Current Version | Previous Version | Graphics & Text | Print | Product List | Glossary On
Versions: 1 2 3 4 5 6 7 8 9 10 11 12 13 14 15 16 17 18 19 20 21 22 23 24 25 26 27 28 29 30 31 32 33 34 35 36 37 38 39 40 41 42 43 44 45 46 47 48 49 50
000
ASUS43 KMPX 272210
RWRMN
WEATHER ROUNDUP FOR MINNESOTA
NATIONAL WEATHER SERVICE TWIN CITIES/CHANHASSEN MN
500 PM CDT THU JUL 27 2017


NOTE: "FAIR" INDICATES FEW OR NO CLOUDS BELOW 12,000 FEET WITH NO
SIGNIFICANT WEATHER AND/OR OBSTRUCTIONS TO VISIBILITY. N/A MEANS
CURRENT SKY AND/OR WEATHER CONDITIONS ARE NOT AVAILABLE.

MNZ060>063-068>070-272300-
   Twin Cities Metro

CITY           SKY/WX    TMP DP  RH WIND       PRES   REMARKS
TWIN CITIES    PTSUNNY   85  56  37 N8        30.03F
ST PAUL        FAIR      84  59  42 NE9       30.03F
CRYSTAL        FAIR      84  56  38 NE10      30.02F
BLAINE         MOSUNNY   86  55  35 N10       30.04F
LAKEVILLE      FAIR      81  61  50 NE6       30.04S
EDEN PRAIRIE   FAIR      85  59  41 N9        30.02F
SOUTH ST PAUL  FAIR      84  55  37 NE8       30.03S
LAKE ELMO      FAIR      82  59  44 NE7       30.05S
$$
MNZ001>005-007-008-013>017-022>024-027-028-272300-
   Northwest Minnesota

CITY           SKY/WX    TMP DP  RH WIND       PRES   REMARKS
BEMIDJI        LGT RAIN  77  57  49 NW7       30.09F
HALLOCK        FAIR      84  55  37 NW5       30.06S
ROSEAU         FAIR      73  64  73 NE24      30.09R
WARROAD        FAIR      70  61  73 SW5       30.09F
THIEF RVR FALL FAIR      81  59  47 VRB6      30.09F
CROOKSTON      FAIR      81  61  50 SW5       30.08S
FOSSTON        FAIR      82  59  44 CALM      30.10F
DETROIT LAKES  FAIR      79  59  50 N5        30.11S
MOORHEAD       FAIR      82  54  36 CALM      30.07F
PARK RAPIDS    FAIR      83  56  39 N10       30.08F
MAHNOMEN       FAIR      80  58  48 NW5       30.09S
$$
MNZ006-009>011-018-025>026-272300-
   North Central Minnesota

CITY           SKY/WX    TMP DP  RH WIND       PRES   REMARKS
BAUDETTE       FAIR      82  56  40 N7        30.08S
FLAG ISLAND    FAIR      82  64  54 CALM      30.07S HAZE
INTL FALLS     FAIR      83  57  41 N5        30.06F
WASKISH        FAIR      79  64  61 W7        30.09F
BIG FORK       FAIR      81  57  44 N3        30.08F
LONGVILLE      PTSUNNY   81  57  44 W6        30.08F
GRAND RAPIDS   FAIR      77  59  53 SW5       30.09F
CRANE LAKE     FAIR      79  55  44 CALM      30.08F
ORR            FAIR      82  52  34 CALM      30.05F
COOK             N/A     79  57  47 E3        30.08F
WALKER         FAIR      80  56  44 CALM      30.08F
$$
MNZ012-019>021-037-272300-
   Northeast Minnesota

CITY           SKY/WX    TMP DP  RH WIND       PRES   REMARKS
DULUTH         FAIR      76  59  55 SE8       30.08F
ELY            FAIR      75  54  46 CALM      30.07F
HIBBING        FAIR      80  54  40 NW6       30.07F
EVELETH        FAIR      78  43  28 N3        30.08F
DULUTH HARBOR  FAIR      68  61  77 E3        30.07F
TWO HARBORS    FAIR      77  63  61 SE3       30.06F
SILVER BAY     FAIR      75  57  53 E6        30.06F
GRAND MARAIS     N/A     66  53  63 E7        30.08F
G MARAIS ARPRT PTSUNNY   66  48  52 SE6       30.12F
$$
MNZ029>031-032-039>041-046>048-054>057-064-272300-
   West Central Minnesota

CITY           SKY/WX    TMP DP  RH WIND       PRES   REMARKS
FERGUS FALLS   FAIR      81  61  50 NW3       30.06S
WHEATON        FAIR      81  55  41 E6        30.08F
MORRIS         FAIR      84  55  37 NE5       30.06F
ALEXANDRIA     FAIR      81  57  43 CALM      30.09F
ELBOW LAKE     FAIR      80  58  47 CALM      30.08F
WADENA         PTSUNNY   79  61  53 N6        30.08S
GLENWOOD       FAIR      82  55  39 CALM      30.08F
APPLETON       FAIR      82  55  39 NE6       30.06F
BENSON         FAIR      84  55  37 CALM      30.08F
ORTONVILLE     FAIR      82  57  42 CALM        N/A
MADISON        FAIR      84  61  45 N6        30.07F
WILLMAR        FAIR      82  59  44 N6        30.07F
$$
MNZ033>034-036-042>043-049>051-058-059-272300-
   Central Minnesota

CITY           SKY/WX    TMP DP  RH WIND       PRES   REMARKS
ST CLOUD       FAIR      83  59  44 VRB6      30.05F
SAUK CENTRE    FAIR      81  58  45 N6        30.07F
PAYNESVILLE    FAIR      84  55  37 N8        30.07F
AITKIN         FAIR      79  61  53 N5        30.06F
PINE RIVER     FAIR      81  59  47 N9        30.11S
BRAINERD       FAIR      82  58  43 VRB5      30.07F
STAPLES        FAIR      82  54  36 NW5       30.07F
LONG PRAIRIE   FAIR      79  59  50 CALM      30.08F
LITTLE FALLS   FAIR      81  54  39 CALM      30.06F
LITCHFIELD     FAIR      84  61  45 NE6       30.05F
BUFFALO        FAIR      83  54  36 N3        30.05F
MAPLE LAKE     FAIR      84  59  42 NE7       30.06F
HUTCHINSON     FAIR      80  62  54 NE6       30.07F
$$
MNZ037-044-045-052-053-272300-
   East Central Minnesota

CITY           SKY/WX    TMP DP  RH WIND       PRES   REMARKS
PRINCETON      FAIR      84  57  39 CALM      30.05F
MORA           FAIR      79  55  44 N3        30.07F
CAMBRIDGE      FAIR      84  63  48 NW5       30.04F
RUSH CITY      FAIR      82  58  45 NW5       30.05F
MOOSE LAKE     FAIR      81  59  47 CALM      30.04F
HINCKLEY       FAIR      81  59  47 NE3       30.05F
CLOQUET        FAIR      75  57  53 E5        30.08S
MCGREGOR       PTSUNNY   81  61  50 W8        30.07F
$$
MNZ071>073-080-081-089-090-097-098-272300-
   Southwest Minnesota

CITY           SKY/WX    TMP DP  RH WIND       PRES   REMARKS
MONTEVIDEO     FAIR      88  63  42 N6        30.07F
CANBY          FAIR      83  57  41 N8        30.08F
MARSHALL       FAIR      80  62  54 NE6       30.07F
REDWOOD FALLS  FAIR      82  58  43 N6        30.05F
OLIVIA         FAIR      81  59  47 N7        30.06F
PIPESTONE      FAIR      81  57  44 N5        30.09F
WINDOM         FAIR      79  59  50 N9        30.07F
WORTHINGTON    FAIR      80  61  52 N9        30.08F
JACKSON        FAIR      79  61  53 NE7       30.07F
TRACY          FAIR      81  62  53 NE10      30.08F
SLAYTON        RAIN      79  49  35 N7        30.10F
$$
MNZ065>067-074>077-082>085-091>093-272300-
   South Central Minnesota

CITY           SKY/WX    TMP DP  RH WIND       PRES   REMARKS
MANKATO        FAIR      81  60  48 N6        30.05F
NEW ULM        FAIR      82  55  39 NE9       30.05F
ST JAMES       FAIR      79  63  57 N6        30.06F
FAIRMONT       FAIR      81  62  52 N10       30.05F
GLENCOE        FAIR      82  64  54 N6        30.05F
FARIBAULT      FAIR      79  63  57 N5        30.04F
OWATONNA       FAIR      82  63  51 N10       30.04F
WASECA         FAIR      77  63  61 N7        30.06F
ALBERT LEA     FAIR      81  64  57 NE10      30.04F
$$
MNZ078>079-086>088-094>096-272300-
   Southeast Minnesota

CITY           SKY/WX    TMP DP  RH WIND       PRES   REMARKS
ROCHESTER      FAIR      80  62  54 NE14      30.04F
RED WING       FAIR      84  55  37 N7        30.02S
STANTON        FAIR      82  61  48 NE6       30.02F
DODGE CENTER   FAIR      81  63  54 N7        30.05F
WINONA         FAIR      81  61  50 N7        30.01F
AUSTIN         FAIR      82  63  51 N12       30.03F
PRESTON        FAIR      79  61  54 N10       30.04S
$$
ABBREVIATIONS USED IN REMARKS
   TC - TEMPERATURES IN CELSIUS
  WCI - WIND CHILL INDEX
   HX - HEAT INDEX
  VSB - VISIBILITY
$$




USA.gov is the U.S. government's official web portal to all federal, state and local government web resources and services.